SCP
0 0 0 0 0 0 0 0 0 0 0 0 0 0 0 0 0 0 0 0 0 0 0 0 0 0 0 0 0 0 0 0 0 0 0 0 0 0 1 1 1 1 1
0 0 0 0 0 0 0 0 0 0 0 0 0 0 0 0 0 0 0 0 0 0 0 0 0 0 0 0 0 0 0 0 0 0 0 0 0 0 0 0 1 1 1
0 0 0 0 0 0 0 0 0 0 0 0 0 0 0 0 0 0 0 0 0 0 0 0 0 0 0 0 0 0 0 0 0 0 0 0 0 0 0 0 0 0 1
0 0 0 0 0 0 0 0 0 0 0 0 0 0 0 0 0 0 0 0 0 0 0 0 0 0 0 0 0 0 0 0 0 0 0 0 0 0 0 0 0 0 0
0 0 0 0 0 0 0 0 0 0 0 0 0 0 0 0 0 0 0 0 0 0 0 0 0 0 0 0 0 0 0 0 0 0 0 0 0 0 0 0 0 0 0
0 0 0 0 0 0 0 0 0 0 0 0 0 0 0 0 0 0 0 0 0 0 0 0 0 0 0 0 0 0 0 0 0 0 0 0 0 0 0 0 0 0 0
0 0 0 0 0 0 0 0 0 0 0 0 0 0 0 0 0 0 0 0 0 0 0 0 0 0 0 0 0 0 0 0 0 0 0 0 0 0 0 0 0 0 0
0 0 0 0 0 0 0 0 0 0 0 0 0 0 0 0 0 0 0 0 0 0 0 0 0 0 0 0 0 0 0 0 0 0 0 0 0 0 0 0 0 0 0
0 0 0 0 0 0 0 0 0 0 0 0 0 0 0 0 -0 0 0 0 0 0 0 0 0 0 0 0 0 0 0 0 0 0 0 0 0 0 0 0 0 0 0
0 0 0 0 0 0 0 0 0 0 0 0 0 0 0 0 -0 -0 0 0 0 -0 0 0 0 0 0 0 0 0 0 0 0 0 0 0 0 0 0 0 0 0 0
0 0 0 0 0 0 0 0 0 0 0 0 0 0 0 0 0 0 0 0 -0 0 0 0 0 0 0 0 0 0 0 0 0 0 0 0 0 0 0 0 0 0 0
0 0 0 0 0 0 0 0 0 0 0 0 0 0 0 0 0 0 0 0 0 0 0 0 0 0 0 0 0 0 0 0 0 0 0 0 0 0 0 0 0 0 0
0 0 0 0 0 0 0 0 0 0 0 0 0 0 0 0 0 0 0 0 0 0 0 0 0 0 0 0 0 0 0 0 0 0 0 0 0 0 0 0 0 0 0
0 0 0 0 0 0 0 0 0 0 0 0 0 0 0 0 0 0 0 0 0 0 0 0 0 0 0 0 0 0 0 0 0 0 0 0 0 0 0 0 0 0 0
0 0 0 0 0 0 0 0 0 0 0 0 0 0 0 0 0 0 0 0 0 0 0 0 0 0 0 0 0 0 0 0 0 0 0 0 -0 0 0 0 0 0 0
0 0 0 0 0 0 0 0 0 0 0 0 0 0 0 0 0 0 0 0 0 0 0 0 0 0 0 0 0 0 0 0 0 0 0 0 0 0 0 0 0 0 0
0 0 0 0 0 0 0 0 0 0 0 0 0 0 0 0 0 0 0 0 0 0 0 0 0 0 0 0 0 0 0 0 0 0 0 -0 0 -0 0 0 0 0 0
0 0 0 0 0 0 0 0 0 0 0 0 0 0 0 0 0 0 0 0 0 0 0 0 0 0 0 0 0 0 0 -0 0 -0 -0 -0 0 0 0 0 0 0 0
0 0 0 0 0 0 0 0 0 0 0 0 0 0 0 0 0 0 0 0 0 0 0 0 0 0 0 0 0 -0 -0 0 0 0 -0 0 0 0 0 0 0 0 0
0 0 0 0 0 0 0 0 0 0 0 0 0 0 0 0 0 0 0 0 0 0 0 0 0 0 0 0 0 -0 -0 -0 -0 0 0 0 0 0 0 0 0 0 0
0 0 0 0 0 0 0 0 0 0 0 0 0 0 0 0 0 0 0 0 0 0 0 0 0 0 0 0 0 -0 -0 -0 0 0 0 0 0 0 0 0 0 0 0
0 0 0 0 0 0 0 0 0 0 0 0 0 0 0 0 0 0 0 0 0 0 0 0 0 0 0 0 0 0 0 -0 -0 0 0 0 0 0 0 0 0 0 0
0 0 0 0 0 0 0 0 0 0 0 0 0 0 0 0 0 0 0 0 0 0 0 0 0 0 0 0 0 0 0 0 0 0 0 0 0 0 0 0 0 0 0
0 0 0 0 0 0 0 0 0 0 0 0 0 0 0 0 0 0 0 0 0 0 0 0 0 0 0 0 0 0 0 0 0 0 0 0 0 0 -0 -0 0 0 0
0 0 0 0 0 0 0 0 0 0 0 0 0 0 0 0 0 0 0 0 0 0 0 0 0 0 0 0 0 0 0 0 0 0 0 0 0 0 0 0 0 0 0
0 0 0 0 0 0 0 0 0 0 0 0 0 0 0 0 0 0 0 0 0 0 0 0 0 0 0 0 0 0 0 0 0 0 0 0 0 0 0 0 0 0 0
Wind_Speed_500mb
36 38 39 40 41 42 44 44 43 42 40 40 40 40 42 44 45 45 45 46 47 48 51 53 56 61 64 69 65 62 67 67 67 61 54 77 79 81 80 77 76 78 82
40 40 40 40 42 43 44 44 43 41 39 37 34 34 34 33 34 37 39 42 44 46 48 51 54 55 59 67 75 80 80 77 79 76 79 46 69 110 84 84 82 82 85
43 42 43 43 43 42 39 37 36 36 36 35 33 29 28 28 29 30 31 32 34 37 39 42 46 52 58 63 67 76 88 93 92 87 88 86 91 65 88 89 86 90 91
46 46 46 45 42 39 35 31 30 29 31 32 29 26 25 25 25 26 28 29 32 34 36 40 45 48 52 57 62 70 78 84 93 100 99 90 93 95 96 73 96 96 105
45 46 47 44 38 32 31 30 29 31 28 27 26 23 21 21 21 20 20 22 25 29 32 35 39 44 48 55 62 70 76 81 86 93 102 110 109 100 103 95 100 89 111
44 44 43 40 35 31 30 29 27 27 29 27 22 19 17 16 15 15 16 18 21 26 34 40 46 50 54 58 61 65 72 80 84 88 93 102 110 112 106 111 114 89 90
43 42 40 36 34 31 28 26 24 23 24 25 24 19 13 10 9 8 9 31 27 27 33 41 47 55 60 63 67 71 75 77 82 89 88 93 101 108 111 109 113 110 98
43 40 37 35 32 27 25 25 24 21 21 22 22 24 6 14 7 19 27 23 38 33 42 42 47 51 55 62 69 74 76 78 80 83 87 82 86 95 103 109 96 94 97
43 38 34 31 28 25 24 22 24 22 19 16 18 10 9 7 41 14 28 35 39 43 46 50 56 59 59 60 63 68 72 80 78 82 84 86 83 85 90 92 94 90 87
39 35 31 29 27 25 24 21 22 21 20 18 13 12 13 21 16 28 36 50 47 47 46 49 52 55 61 64 64 64 67 71 73 73 80 81 84 85 84 89 91 86 91
35 32 29 27 26 25 24 23 22 22 22 19 19 21 23 24 23 20 38 69 64 51 54 56 58 59 57 55 56 54 57 62 62 61 64 73 83 88 86 83 85 85 84
31 30 27 27 27 26 24 23 23 23 22 21 21 22 26 20 25 30 44 64 71 68 64 57 60 57 54 48 50 57 64 65 66 68 63 62 68 73 77 79 76 78 78
30 32 30 30 29 26 25 24 23 22 22 24 27 26 28 34 42 47 51 60 59 77 69 68 61 61 60 64 67 67 68 67 64 64 67 58 66 68 64 73 78 75 78
35 35 33 32 30 28 27 27 24 24 28 29 25 28 33 36 39 38 39 44 58 50 73 65 62 62 69 67 72 73 67 61 63 59 53 56 64 66 58 63 73 75 72
35 32 31 30 29 29 31 28 27 29 28 22 26 30 33 34 34 31 35 35 36 32 72 64 67 74 71 73 72 65 54 52 54 54 51 55 63 62 51 55 68 73 66
28 25 25 27 28 32 29 30 28 22 18 20 23 27 31 34 37 33 32 33 33 37 47 71 81 79 78 75 64 55 51 55 58 50 52 59 68 57 49 47 56 67 66
23 24 26 28 30 27 28 24 19 12 12 15 19 23 25 29 28 28 29 32 36 40 58 82 77 77 74 71 59 55 54 56 50 45 50 53 50 44 48 41 40 53 53
26 27 29 27 23 25 22 16 10 6 5 8 12 16 19 21 19 21 26 31 37 39 50 72 74 72 68 59 57 61 60 54 47 48 47 51 38 34 38 39 36 37 34
24 25 23 22 24 20 14 11 8 10 12 14 15 15 16 17 15 18 23 30 35 37 40 51 63 56 56 53 54 62 62 59 55 52 46 44 36 33 34 38 37 32 30
25 23 22 23 20 16 15 13 14 15 17 17 19 18 17 16 15 17 21 23 26 32 36 41 50 51 49 49 50 57 58 50 56 46 31 38 42 46 41 33 39 36 32
24 24 23 20 19 19 19 19 21 23 23 22 24 24 22 23 22 24 27 24 28 32 35 40 44 49 49 51 51 49 52 52 52 48 45 43 37 38 37 34 30 31 32
24 26 24 23 26 24 25 28 29 29 29 29 27 28 28 28 26 27 28 29 30 34 35 38 40 45 45 46 48 50 51 52 49 41 46 34 34 38 34 27 28 30 31
34 34 32 34 33 32 33 34 35 38 37 35 35 34 32 31 32 30 29 30 30 31 33 36 38 37 43 42 46 46 45 41 41 37 36 31 37 36 36 30 24 27 27
45 45 44 43 44 41 40 42 43 46 46 43 40 39 39 34 34 37 35 33 31 32 33 35 37 37 39 39 40 42 44 40 35 33 39 29 34 33 34 34 31 25 25
55 56 55 54 56 53 47 49 50 53 53 51 46 45 44 43 36 40 44 41 38 32 35 38 38 40 42 42 41 38 38 43 44 39 23 35 33 34 19 31 27 26 21
58 61 64 64 64 64 60 57 57 58 61 61 53 51 48 49 45 44 47 46 49 39 39 38 38 40 44 45 43 41 38 38 40 34 27 39 30 31 17 21 30 23 20
Wind_Direction_500mb
296 298 297 297 297 296 294 292 290 287 282 278 276 273 270 270 271 271 271 271 273 275 275 275 272 268 267 269 271 269 265 263 267 273 280 260 262 254 253 253 254 254 254
295 295 294 295 295 294 292 291 289 286 284 281 277 276 275 274 273 272 271 272 274 276 277 278 278 277 273 268 267 268 268 268 268 269 265 274 270 260 252 252 251 253 254
296 297 298 298 297 294 291 288 288 289 288 287 286 281 279 279 278 277 275 275 278 280 281 281 280 279 278 277 274 271 270 271 271 270 267 263 264 274 255 258 253 251 252
295 297 299 300 300 297 294 291 287 285 286 286 287 289 288 284 281 281 283 283 281 282 285 285 285 286 285 284 283 280 276 274 273 271 267 267 264 265 268 274 261 256 249
292 295 297 299 298 296 296 295 296 295 291 288 289 289 286 283 284 283 282 286 290 293 296 298 297 295 291 286 283 281 281 282 280 276 273 269 267 266 265 272 274 270 261
289 292 294 294 294 297 297 297 299 301 302 305 305 300 288 276 270 271 280 291 300 303 303 304 305 305 304 301 296 290 287 282 280 281 278 274 271 269 266 265 265 274 276
287 289 288 288 291 293 293 293 294 296 297 305 312 309 282 252 251 266 322 316 305 312 311 313 311 308 305 301 298 294 290 287 285 282 281 279 276 272 269 264 264 266 267
284 284 284 286 287 289 290 292 292 294 303 316 330 330 327 297 261 306 313 319 316 315 315 311 311 309 306 304 301 299 296 288 283 282 284 286 285 278 274 271 268 264 264
280 280 281 281 282 282 283 287 290 298 306 319 334 343 337 308 313 281 310 317 310 313 311 315 314 314 314 311 306 303 299 294 288 279 279 282 286 286 281 276 276 272 268
276 276 276 276 277 277 280 284 291 298 303 309 308 306 300 298 323 313 306 309 307 307 307 307 313 321 321 315 309 304 303 299 293 286 277 279 281 286 286 281 278 279 271
272 271 270 272 273 273 275 280 285 288 290 296 301 309 309 308 305 287 305 305 307 315 319 324 331 332 333 329 320 304 299 295 291 288 282 281 278 279 284 282 278 275 275
267 266 268 269 269 269 272 275 279 282 287 291 295 299 293 293 292 296 296 300 305 318 319 325 335 341 340 334 331 319 308 299 297 289 285 292 288 282 279 278 275 270 272
265 266 267 267 264 265 268 272 276 281 286 288 281 289 298 295 294 291 291 298 305 315 320 329 336 341 339 336 330 323 314 306 298 295 286 296 299 293 294 283 275 272 268
267 265 262 261 259 262 264 266 272 277 274 275 294 298 297 297 293 293 297 300 307 313 321 323 333 336 337 333 331 324 316 309 306 305 295 296 307 285 296 297 287 271 274
266 261 257 257 256 260 261 267 274 271 274 294 298 300 295 291 290 287 283 286 289 300 311 311 322 329 331 333 335 330 326 319 308 305 304 302 310 292 290 300 303 278 271
259 260 262 261 260 259 263 266 267 270 290 298 302 297 292 287 281 281 286 290 294 294 287 302 314 321 326 330 333 330 322 314 309 301 302 308 295 292 294 301 311 303 270
271 266 262 259 253 257 257 259 258 273 294 306 304 302 301 295 295 286 284 290 295 297 294 304 313 319 323 328 329 328 332 327 315 311 314 310 297 297 296 300 311 322 298
274 261 251 251 251 247 243 238 238 259 287 321 330 330 324 313 306 293 288 294 296 299 302 305 314 321 322 327 323 326 331 331 326 323 333 318 309 298 302 307 302 323 341
266 252 250 250 242 233 220 199 215 247 269 286 308 333 338 332 316 308 305 308 306 304 306 310 316 325 323 322 321 322 324 326 327 331 330 322 319 309 311 310 308 307 326
261 250 243 237 236 223 207 223 244 256 268 282 293 300 303 309 313 306 312 319 323 320 320 318 324 330 334 338 333 327 326 332 332 331 323 325 320 318 314 310 310 307 301
255 253 244 237 230 230 236 244 252 259 267 275 282 286 291 292 295 297 300 308 314 317 319 322 330 332 341 341 340 341 337 338 333 336 333 326 327 325 319 313 307 301 306
255 250 245 241 244 248 251 256 260 264 268 273 276 277 281 284 286 287 293 300 305 309 313 317 324 328 334 337 340 344 342 343 347 342 350 358 354 356 345 331 320 315 311
255 254 253 254 255 255 258 262 266 269 270 271 273 275 275 278 279 279 281 287 291 296 305 308 314 322 325 334 335 340 344 342 342 345 346 354 357 358 6 7 346 333 330
261 259 258 259 262 259 260 264 268 270 270 270 271 273 273 273 273 277 277 277 280 287 293 299 303 310 314 322 326 332 335 337 338 332 346 349 358 355 8 13 15 10 4
264 264 263 261 262 264 264 266 269 269 270 270 270 271 272 272 270 272 276 280 280 281 286 293 297 303 307 311 314 318 320 326 333 339 334 346 346 350 341 9 8 7 16
268 266 265 264 264 266 266 266 267 269 269 270 270 269 269 272 270 268 270 275 279 286 282 282 287 291 295 299 303 307 313 316 322 330 324 333 334 346 333 337 353 359 350
Wind_Speed_850mb
36 38 39 40 41 42 44 44 43 42 40 40 40 40 42 44 45 45 45 46 47 48 51 53 56 61 64 69 65 62 67 67 67 61 54 77 79 81 80 77 76 78 82
40 40 40 40 42 43 44 44 43 41 39 37 34 34 34 33 34 37 39 42 44 46 48 51 54 55 59 67 75 80 80 77 79 76 79 46 69 110 84 84 82 82 85
43 42 43 43 43 42 39 37 36 36 36 35 33 29 28 28 29 30 31 32 34 37 39 42 46 52 58 63 67 76 88 93 92 87 88 86 91 65 88 89 86 90 91
46 46 46 45 42 39 35 31 30 29 31 32 29 26 25 25 25 26 28 29 32 34 36 40 45 48 52 57 62 70 78 84 93 100 99 90 93 95 96 73 96 96 105
45 46 47 44 38 32 31 30 29 31 28 27 26 23 21 21 21 20 20 22 25 29 32 35 39 44 48 55 62 70 76 81 86 93 102 110 109 100 103 95 100 89 111
44 44 43 40 35 31 30 29 27 27 29 27 22 19 17 16 15 15 16 18 21 26 34 40 46 50 54 58 61 65 72 80 84 88 93 102 110 112 106 111 114 89 90
43 42 40 36 34 31 28 26 24 23 24 25 24 19 13 10 9 8 9 31 27 27 33 41 47 55 60 63 67 71 75 77 82 89 88 93 101 108 111 109 113 110 98
43 40 37 35 32 27 25 25 24 21 21 22 22 24 6 14 7 19 27 23 38 33 42 42 47 51 55 62 69 74 76 78 80 83 87 82 86 95 103 109 96 94 97
43 38 34 31 28 25 24 22 24 22 19 16 18 10 9 7 41 14 28 35 39 43 46 50 56 59 59 60 63 68 72 80 78 82 84 86 83 85 90 92 94 90 87
39 35 31 29 27 25 24 21 22 21 20 18 13 12 13 21 16 28 36 50 47 47 46 49 52 55 61 64 64 64 67 71 73 73 80 81 84 85 84 89 91 86 91
35 32 29 27 26 25 24 23 22 22 22 19 19 21 23 24 23 20 38 69 64 51 54 56 58 59 57 55 56 54 57 62 62 61 64 73 83 88 86 83 85 85 84
31 30 27 27 27 26 24 23 23 23 22 21 21 22 26 20 25 30 44 64 71 68 64 57 60 57 54 48 50 57 64 65 66 68 63 62 68 73 77 79 76 78 78
30 32 30 30 29 26 25 24 23 22 22 24 27 26 28 34 42 47 51 60 59 77 69 68 61 61 60 64 67 67 68 67 64 64 67 58 66 68 64 73 78 75 78
35 35 33 32 30 28 27 27 24 24 28 29 25 28 33 36 39 38 39 44 58 50 73 65 62 62 69 67 72 73 67 61 63 59 53 56 64 66 58 63 73 75 72
35 32 31 30 29 29 31 28 27 29 28 22 26 30 33 34 34 31 35 35 36 32 72 64 67 74 71 73 72 65 54 52 54 54 51 55 63 62 51 55 68 73 66
28 25 25 27 28 32 29 30 28 22 18 20 23 27 31 34 37 33 32 33 33 37 47 71 81 79 78 75 64 55 51 55 58 50 52 59 68 57 49 47 56 67 66
23 24 26 28 30 27 28 24 19 12 12 15 19 23 25 29 28 28 29 32 36 40 58 82 77 77 74 71 59 55 54 56 50 45 50 53 50 44 48 41 40 53 53
26 27 29 27 23 25 22 16 10 6 5 8 12 16 19 21 19 21 26 31 37 39 50 72 74 72 68 59 57 61 60 54 47 48 47 51 38 34 38 39 36 37 34
24 25 23 22 24 20 14 11 8 10 12 14 15 15 16 17 15 18 23 30 35 37 40 51 63 56 56 53 54 62 62 59 55 52 46 44 36 33 34 38 37 32 30
25 23 22 23 20 16 15 13 14 15 17 17 19 18 17 16 15 17 21 23 26 32 36 41 50 51 49 49 50 57 58 50 56 46 31 38 42 46 41 33 39 36 32
24 24 23 20 19 19 19 19 21 23 23 22 24 24 22 23 22 24 27 24 28 32 35 40 44 49 49 51 51 49 52 52 52 48 45 43 37 38 37 34 30 31 32
24 26 24 23 26 24 25 28 29 29 29 29 27 28 28 28 26 27 28 29 30 34 35 38 40 45 45 46 48 50 51 52 49 41 46 34 34 38 34 27 28 30 31
34 34 32 34 33 32 33 34 35 38 37 35 35 34 32 31 32 30 29 30 30 31 33 36 38 37 43 42 46 46 45 41 41 37 36 31 37 36 36 30 24 27 27
45 45 44 43 44 41 40 42 43 46 46 43 40 39 39 34 34 37 35 33 31 32 33 35 37 37 39 39 40 42 44 40 35 33 39 29 34 33 34 34 31 25 25
55 56 55 54 56 53 47 49 50 53 53 51 46 45 44 43 36 40 44 41 38 32 35 38 38 40 42 42 41 38 38 43 44 39 23 35 33 34 19 31 27 26 21
58 61 64 64 64 64 60 57 57 58 61 61 53 51 48 49 45 44 47 46 49 39 39 38 38 40 44 45 43 41 38 38 40 34 27 39 30 31 17 21 30 23 20
Wind_Direction_850mb
296 298 297 297 297 296 294 292 290 287 282 278 276 273 270 270 271 271 271 271 273 275 275 275 272 268 267 269 271 269 265 263 267 273 280 260 262 254 253 253 254 254 254
295 295 294 295 295 294 292 291 289 286 284 281 277 276 275 274 273 272 271 272 274 276 277 278 278 277 273 268 267 268 268 268 268 269 265 274 270 260 252 252 251 253 254
296 297 298 298 297 294 291 288 288 289 288 287 286 281 279 279 278 277 275 275 278 280 281 281 280 279 278 277 274 271 270 271 271 270 267 263 264 274 255 258 253 251 252
295 297 299 300 300 297 294 291 287 285 286 286 287 289 288 284 281 281 283 283 281 282 285 285 285 286 285 284 283 280 276 274 273 271 267 267 264 265 268 274 261 256 249
292 295 297 299 298 296 296 295 296 295 291 288 289 289 286 283 284 283 282 286 290 293 296 298 297 295 291 286 283 281 281 282 280 276 273 269 267 266 265 272 274 270 261
289 292 294 294 294 297 297 297 299 301 302 305 305 300 288 276 270 271 280 291 300 303 303 304 305 305 304 301 296 290 287 282 280 281 278 274 271 269 266 265 265 274 276
287 289 288 288 291 293 293 293 294 296 297 305 312 309 282 252 251 266 322 316 305 312 311 313 311 308 305 301 298 294 290 287 285 282 281 279 276 272 269 264 264 266 267
284 284 284 286 287 289 290 292 292 294 303 316 330 330 327 297 261 306 313 319 316 315 315 311 311 309 306 304 301 299 296 288 283 282 284 286 285 278 274 271 268 264 264
280 280 281 281 282 282 283 287 290 298 306 319 334 343 337 308 313 281 310 317 310 313 311 315 314 314 314 311 306 303 299 294 288 279 279 282 286 286 281 276 276 272 268
276 276 276 276 277 277 280 284 291 298 303 309 308 306 300 298 323 313 306 309 307 307 307 307 313 321 321 315 309 304 303 299 293 286 277 279 281 286 286 281 278 279 271
272 271 270 272 273 273 275 280 285 288 290 296 301 309 309 308 305 287 305 305 307 315 319 324 331 332 333 329 320 304 299 295 291 288 282 281 278 279 284 282 278 275 275
267 266 268 269 269 269 272 275 279 282 287 291 295 299 293 293 292 296 296 300 305 318 319 325 335 341 340 334 331 319 308 299 297 289 285 292 288 282 279 278 275 270 272
265 266 267 267 264 265 268 272 276 281 286 288 281 289 298 295 294 291 291 298 305 315 320 329 336 341 339 336 330 323 314 306 298 295 286 296 299 293 294 283 275 272 268
267 265 262 261 259 262 264 266 272 277 274 275 294 298 297 297 293 293 297 300 307 313 321 323 333 336 337 333 331 324 316 309 306 305 295 296 307 285 296 297 287 271 274
266 261 257 257 256 260 261 267 274 271 274 294 298 300 295 291 290 287 283 286 289 300 311 311 322 329 331 333 335 330 326 319 308 305 304 302 310 292 290 300 303 278 271
259 260 262 261 260 259 263 266 267 270 290 298 302 297 292 287 281 281 286 290 294 294 287 302 314 321 326 330 333 330 322 314 309 301 302 308 295 292 294 301 311 303 270
271 266 262 259 253 257 257 259 258 273 294 306 304 302 301 295 295 286 284 290 295 297 294 304 313 319 323 328 329 328 332 327 315 311 314 310 297 297 296 300 311 322 298
274 261 251 251 251 247 243 238 238 259 287 321 330 330 324 313 306 293 288 294 296 299 302 305 314 321 322 327 323 326 331 331 326 323 333 318 309 298 302 307 302 323 341
266 252 250 250 242 233 220 199 215 247 269 286 308 333 338 332 316 308 305 308 306 304 306 310 316 325 323 322 321 322 324 326 327 331 330 322 319 309 311 310 308 307 326
261 250 243 237 236 223 207 223 244 256 268 282 293 300 303 309 313 306 312 319 323 320 320 318 324 330 334 338 333 327 326 332 332 331 323 325 320 318 314 310 310 307 301
255 253 244 237 230 230 236 244 252 259 267 275 282 286 291 292 295 297 300 308 314 317 319 322 330 332 341 341 340 341 337 338 333 336 333 326 327 325 319 313 307 301 306
255 250 245 241 244 248 251 256 260 264 268 273 276 277 281 284 286 287 293 300 305 309 313 317 324 328 334 337 340 344 342 343 347 342 350 358 354 356 345 331 320 315 311
255 254 253 254 255 255 258 262 266 269 270 271 273 275 275 278 279 279 281 287 291 296 305 308 314 322 325 334 335 340 344 342 342 345 346 354 357 358 6 7 346 333 330
261 259 258 259 262 259 260 264 268 270 270 270 271 273 273 273 273 277 277 277 280 287 293 299 303 310 314 322 326 332 335 337 338 332 346 349 358 355 8 13 15 10 4
264 264 263 261 262 264 264 266 269 269 270 270 270 271 272 272 270 272 276 280 280 281 286 293 297 303 307 311 314 318 320 326 333 339 334 346 346 350 341 9 8 7 16
268 266 265 264 264 266 266 266 267 269 269 270 270 269 269 272 270 268 270 275 279 286 282 282 287 291 295 299 303 307 313 316 322 330 324 333 334 346 333 337 353 359 350